Theta_e
348 345 343 341 338 336 334 333 332 332 332 331 331 331 329 329 328 329 329 330 329 330 331 331 332 330 333 336 337 336 339 339 342 343 344 344 343 346 345 344 344 346 344
344 342 339 337 335 333 332 331 331 331 330 330 328 328 328 324 323 324 326 327 328 328 328 327 328 330 329 329 331 332 335 336 338 341 341 342 344 344 344 345 343 342 344
341 339 336 334 332 331 331 330 329 329 328 327 326 326 319 316 314 320 324 326 326 326 326 326 328 326 326 325 325 326 328 330 331 334 336 340 339 342 342 344 345 345 344
337 335 333 332 331 330 329 328 327 326 325 323 321 317 313 310 311 321 324 324 324 324 323 323 324 322 322 321 322 323 323 326 329 330 333 335 338 338 340 341 343 343 344
335 333 332 330 329 328 326 325 324 321 321 320 317 313 311 308 313 316 321 323 323 322 320 319 321 320 319 319 320 320 322 325 328 330 332 332 334 337 338 338 340 342 341
334 332 331 329 327 326 325 322 320 320 320 320 319 316 308 309 312 313 316 320 322 323 320 319 319 318 312 318 320 321 322 324 326 327 329 330 332 333 333 333 335 337 340
333 331 328 327 326 323 322 321 320 320 320 319 319 318 315 307 309 312 314 319 319 321 320 319 316 317 309 316 319 319 320 322 322 323 325 326 327 327 328 331 332 332 333
331 329 327 327 324 322 321 321 320 320 320 320 319 318 319 314 307 311 314 316 316 317 319 316 313 310 309 312 314 313 315 318 320 320 321 322 324 324 325 327 329 332 332
329 327 326 325 323 322 321 321 321 321 321 320 320 320 318 319 310 308 312 314 314 318 315 312 311 310 309 310 313 314 313 314 317 317 318 320 322 322 323 325 327 329 329
327 325 325 325 323 322 322 322 322 322 322 321 321 321 320 319 316 312 310 313 311 314 319 315 313 311 311 310 310 311 314 312 312 314 314 315 316 317 319 318 321 324 326
325 323 324 324 322 322 322 322 322 322 322 322 322 321 322 321 320 314 311 312 311 314 316 313 313 312 311 311 311 311 312 311 313 315 315 314 313 312 312 316 317 317 321
325 324 323 322 322 322 322 322 322 322 324 324 322 321 322 321 319 315 312 311 311 313 314 313 312 313 312 311 312 311 312 313 315 312 315 313 315 313 312 311 312 314 316
325 324 324 323 323 321 322 322 323 324 322 324 322 318 318 323 316 314 313 313 313 312 313 311 312 314 314 313 311 311 311 312 310 313 311 313 313 312 312 311 311 310 312
326 325 324 323 321 320 320 322 323 321 317 315 315 317 317 317 317 314 313 313 313 313 312 310 313 315 315 313 314 314 313 312 311 311 311 312 311 312 311 311 310 311 312
324 324 322 322 320 322 321 321 317 316 312 312 314 315 315 315 314 313 312 312 311 310 309 309 312 316 314 313 313 312 313 313 313 313 313 311 311 311 310 310 309 310 311
324 323 322 320 319 321 320 318 317 316 315 314 312 313 315 314 314 313 312 312 311 310 310 309 312 316 314 313 313 313 312 311 312 313 314 313 312 311 310 310 309 310 310
323 320 321 319 320 320 319 319 321 317 315 313 313 314 313 314 314 313 313 313 313 310 310 311 313 316 315 314 314 313 312 313 310 311 311 312 313 311 309 309 309 309 309
322 320 317 318 319 320 320 321 319 320 318 315 316 316 316 315 314 315 316 314 314 315 315 314 314 316 315 314 314 313 313 313 311 311 310 311 313 309 308 308 307 308 308
322 318 318 321 320 320 318 318 319 319 320 320 321 320 320 318 316 318 317 315 313 317 318 317 317 315 315 315 316 314 312 310 311 311 311 311 308 307 306 305 305 306 307
320 319 319 319 319 320 321 321 321 320 320 320 320 319 320 318 318 317 316 317 317 318 317 317 316 315 314 314 313 312 312 312 310 309 308 306 305 304 303 304 305 306 306
319 318 317 317 319 319 320 319 320 320 320 320 320 319 314 314 314 314 316 317 317 316 315 315 314 312 312 311 311 309 308 307 306 305 304 303 303 303 303 304 304 304 305
320 320 319 319 320 320 320 321 319 321 321 320 317 316 314 313 313 313 313 312 312 311 310 309 309 309 308 308 307 306 305 306 304 303 302 302 303 303 303 303 303 304 304
320 321 321 321 320 320 321 320 320 319 319 317 316 315 313 312 312 311 310 309 309 308 307 306 306 306 306 305 305 306 306 303 302 301 301 301 301 301 302 303 304 304 304
322 321 320 321 322 321 321 321 321 319 316 315 314 313 312 311 310 309 308 308 307 307 306 305 305 304 305 306 306 306 304 303 301 300 299 299 299 300 301 302 303 304 305
321 321 321 321 322 321 319 320 320 316 314 313 313 311 311 310 309 308 308 307 306 305 305 304 304 305 306 306 306 304 303 302 301 300 299 299 298 299 301 302 303 304 304
321 322 322 323 322 322 321 320 316 314 313 312 311 311 310 309 308 307 306 306 305 305 305 305 305 306 306 306 304 302 302 301 301 299 299 299 298 299 302 303 303 304 304
Wind_Speed
13 13 12 10 8 9 9 8 8 8 9 10 12 12 13 14 16 15 16 14 16 16 16 15 15 17 19 20 18 18 15 15 8 16 19 19 18 19 19 17 22 22 14
12 11 10 9 8 8 8 7 8 8 9 10 9 10 14 16 15 16 16 14 13 13 15 15 16 15 17 21 22 24 21 21 17 14 17 21 19 21 22 19 18 19 19
11 10 9 8 7 7 7 7 8 8 10 12 13 15 14 16 15 14 13 16 16 14 13 14 16 18 18 20 21 21 21 22 21 19 19 19 21 19 22 21 18 19 17
13 12 9 8 8 9 8 8 9 10 12 12 13 15 15 17 18 14 14 15 15 17 17 17 17 17 19 20 18 18 19 22 20 19 20 18 15 17 18 18 19 16 15
13 11 10 10 9 10 10 9 9 11 11 12 14 15 17 19 16 17 15 14 13 14 16 16 14 17 17 16 16 17 17 18 19 19 18 19 19 20 17 19 17 19 21
13 13 11 10 11 10 9 9 10 10 11 11 12 14 20 16 14 14 15 13 12 11 14 15 13 16 23 18 16 16 15 18 19 13 15 16 19 19 20 20 19 18 6
14 14 12 12 12 10 10 9 9 9 10 9 10 10 14 21 18 14 13 9 9 10 11 12 14 13 23 18 17 19 19 13 17 17 17 18 20 21 24 22 19 18 17
15 15 14 13 12 11 10 9 8 7 6 6 7 7 7 12 18 14 13 15 9 4 5 8 11 15 18 18 18 21 20 17 16 18 16 17 16 20 19 20 23 23 23
15 15 14 14 13 11 9 7 5 3 2 2 2 2 5 5 13 17 13 17 15 10 2 5 14 21 16 17 14 18 19 17 14 18 19 17 15 20 21 19 19 17 14
16 14 14 13 13 10 8 5 3 3 2 5 1 5 4 3 2 12 16 12 15 15 4 3 12 20 16 16 17 17 18 21 23 22 18 18 20 21 20 24 23 20 18
16 14 13 13 12 10 7 5 4 3 1 6 7 8 9 9 5 4 9 8 11 10 12 14 14 16 17 15 17 19 19 21 22 18 16 16 16 17 19 20 20 18 20
18 16 14 13 11 10 9 6 7 8 11 13 14 14 17 13 8 2 3 5 6 7 13 15 19 17 19 17 15 16 18 22 16 22 17 20 17 16 16 18 19 21 19
18 16 14 12 8 11 10 10 12 14 14 12 9 4 3 10 10 2 6 10 10 9 11 19 20 22 18 8 9 12 14 12 18 16 20 20 20 20 20 18 18 19 19
17 16 13 10 8 9 12 14 16 4 9 10 11 10 9 7 8 6 6 9 13 11 16 23 21 25 14 10 14 17 16 13 13 15 19 17 22 19 19 19 23 24 17
16 14 13 13 14 13 16 8 3 2 1 4 5 5 4 5 5 8 11 12 13 15 18 22 21 15 14 15 15 16 20 22 21 22 23 19 18 18 18 18 23 21 19
14 14 16 16 15 17 15 13 11 10 9 6 5 6 9 10 11 13 15 15 16 14 16 17 20 16 11 8 11 8 11 16 16 22 23 25 22 17 17 19 20 19 21
15 15 13 10 12 9 7 7 15 18 16 14 14 15 17 16 13 14 17 17 17 17 18 20 19 15 11 9 13 11 13 10 16 17 23 24 28 17 18 19 19 19 20
12 10 10 11 7 9 7 6 5 10 20 22 17 20 21 23 19 18 20 21 21 15 17 13 16 13 10 12 11 9 9 13 16 17 22 24 22 19 18 18 20 20 22
10 10 7 9 6 2 2 7 12 13 5 8 11 10 14 12 17 15 21 28 19 14 13 8 10 11 11 15 16 13 9 19 17 19 20 19 19 19 20 22 23 24 23
13 5 9 4 4 10 15 19 11 6 9 12 8 13 2 1 8 12 14 4 3 6 7 9 12 11 9 17 11 11 12 13 16 16 17 19 21 23 23 24 23 22 22
16 13 10 9 12 13 6 6 8 9 12 12 12 2 4 4 10 11 6 7 8 7 12 8 10 15 13 11 13 14 16 17 16 18 21 22 23 22 22 23 24 23 23
12 20 16 16 17 11 9 6 10 13 12 8 10 3 3 9 11 12 11 12 12 12 12 12 13 13 14 13 14 15 16 12 15 17 19 19 20 22 22 22 23 23 23
9 11 20 12 10 9 6 9 8 14 13 11 11 11 12 12 12 11 11 12 11 12 13 14 14 13 12 12 13 14 7 7 12 15 15 19 21 22 22 23 23 23 22
14 13 10 8 2 3 10 8 11 7 9 12 11 11 12 10 11 12 11 12 11 12 13 14 13 13 11 12 12 10 7 14 20 16 20 21 20 23 22 23 24 25 23
18 7 11 10 5 8 11 12 13 10 10 10 10 12 9 10 11 10 10 12 10 12 14 14 13 12 12 14 8 3 11 18 20 24 25 24 23 21 20 21 23 23 24
10 4 4 9 6 4 5 6 8 10 10 10 11 9 9 9 11 8 10 9 11 13 14 12 13 13 13 10 4 11 15 20 26 26 25 25 20 18 19 21 23 23 24
Wind_Direction
124 117 120 115 107 90 78 64 54 50 45 43 39 31 30 27 23 15 10 14 6 9 16 9 359 358 354 353 342 321 309 313 301 310 303 304 294 292 293 268 266 266 282
126 124 116 106 95 85 71 63 54 49 49 43 49 39 43 35 27 21 14 9 11 4 8 3 6 9 1 1 357 354 354 360 345 321 311 312 312 304 300 300 288 270 260
147 133 123 116 104 95 82 70 66 65 61 56 50 48 46 31 23 27 19 24 15 18 11 17 31 20 9 360 351 348 343 341 330 317 309 308 309 309 315 308 305 300 290
129 119 115 105 93 92 93 87 81 73 65 60 56 50 43 33 25 35 19 22 25 32 22 26 32 16 8 355 345 340 336 331 328 327 325 318 307 325 325 330 331 322 297
124 128 115 111 107 104 99 90 80 77 72 69 57 51 45 31 27 28 28 20 32 40 25 28 19 13 5 352 346 337 334 329 325 328 330 335 344 356 352 346 335 334 322
139 127 126 125 122 114 107 100 94 83 75 68 64 46 41 30 32 30 17 21 33 52 44 21 23 9 8 4 3 358 343 341 328 352 342 344 343 347 352 346 337 343 329
136 134 136 138 126 124 121 118 103 90 78 67 56 49 31 29 27 20 9 24 32 35 43 27 18 8 14 15 12 359 4 357 357 353 354 341 334 340 336 329 325 315 301
141 139 144 141 135 139 133 126 114 101 88 74 59 40 37 19 21 17 18 11 16 39 38 24 23 10 14 17 15 7 1 358 354 358 350 335 331 338 331 329 319 313 304
145 147 153 150 147 150 147 132 116 124 154 157 135 89 41 357 25 27 16 13 3 355 32 56 39 16 9 12 9 357 359 358 2 358 351 352 359 355 350 353 351 346 339
150 153 160 155 154 154 146 152 173 229 243 322 314 239 207 259 8 31 34 20 358 339 239 2 20 3 353 351 344 342 333 342 345 351 358 6 3 3 359 359 1 352 346
149 152 157 158 159 155 166 183 201 246 256 252 253 243 228 212 236 20 43 33 12 350 344 5 345 328 341 338 331 325 321 328 329 344 347 356 1 0 357 347 352 357 338
149 152 157 163 168 166 182 197 229 230 238 242 252 257 216 213 206 209 44 4 345 353 336 343 321 306 309 322 325 331 337 336 341 347 354 352 344 351 348 351 351 340 343
154 157 165 177 209 165 194 211 232 244 250 235 222 317 68 177 173 99 16 348 326 309 321 334 325 316 315 328 1 4 354 6 353 355 352 337 347 344 344 340 346 338 335
156 165 170 178 187 195 213 223 236 211 31 10 341 344 11 10 128 32 1 338 336 336 318 328 333 320 317 284 11 358 347 350 348 1 337 340 336 338 342 342 340 326 321
163 173 176 192 196 208 234 211 126 140 234 240 249 266 277 294 275 300 299 301 300 307 310 316 317 320 357 358 350 342 350 349 349 342 332 327 328 329 332 339 333 331 327
175 190 197 178 194 206 201 195 200 206 220 218 200 209 236 246 266 277 286 292 292 297 295 290 290 295 321 309 313 318 326 335 342 336 332 326 318 321 331 336 331 329 328
193 196 206 212 199 190 210 235 207 223 226 231 232 239 245 252 254 271 282 284 286 284 278 281 279 283 292 329 329 310 328 341 344 336 331 324 318 331 340 335 330 332 323
222 194 182 214 189 224 237 253 238 262 209 229 242 253 262 258 260 277 283 281 283 282 272 273 280 308 343 326 330 316 327 339 335 324 318 312 314 344 339 338 332 326 320
207 191 232 236 218 147 280 256 252 257 270 305 274 270 294 266 249 268 276 278 274 279 297 292 312 315 323 320 312 299 334 329 317 302 306 316 345 350 344 336 325 316 316
188 165 209 309 285 222 239 227 257 309 290 279 310 311 62 191 262 284 297 356 284 282 298 301 307 319 329 328 6 350 330 317 321 340 352 359 353 344 332 320 314 317 315
195 189 208 221 245 254 274 300 292 301 314 320 317 142 70 10 332 324 360 360 347 324 323 336 328 325 342 341 340 345 347 341 351 14 358 347 335 326 324 320 318 317 316
220 182 199 217 227 228 240 289 326 299 300 307 359 319 333 339 341 352 346 359 360 3 358 352 344 350 347 352 356 346 332 348 10 355 340 331 328 323 319 317 315 312 313
234 242 208 225 233 239 232 272 306 334 333 350 338 337 341 344 341 337 354 347 345 345 340 341 334 339 340 348 342 328 340 15 353 345 336 327 318 314 313 313 314 307 303
262 254 243 278 168 303 348 358 322 285 2 352 354 342 330 335 345 348 344 344 344 340 336 328 330 321 332 332 324 320 353 343 339 335 325 323 310 309 310 306 300 302 315
254 287 1 308 9 333 315 300 276 2 354 345 345 331 345 355 335 325 345 335 342 336 328 317 321 325 325 318 310 312 326 337 337 332 327 318 311 303 302 302 308 317 313
250 265 292 325 346 309 280 304 24 6 350 350 336 344 333 330 313 352 342 335 348 324 313 329 324 319 319 313 347 341 337 334 330 326 322 318 310 297 299 301 301 303 305